Change the Weather History Date:

Thursday, January 30, 2014

  Actual Average Record
Temperature  
Mean Temperature 20 °F 19 °F  
Max Temperature 26 °F 27 °F 47 °F (1974)
Min Temperature 14 °F 10 °F -26 °F (1951)
Degree Days  
Heating Degree Days 45 46  
Month to date heating degree days 1581 1369  
Since 1 July heating degree days 4923 4430  
Moisture  
Dew Point 12 °F    
Average Humidity 69    
Maximum Humidity 88    
Minimum Humidity 50    
Precipitation  
Precipitation 0.02 in 0.04 in 1.00 in (1947)
Month to date precipitation 1.45 1.61  
Year to date precipitation 1.45 1.61  
Snow  
Snow 0.70 in 0.60 in 10.00 in (1947)
Month to date snowfall 15.3 20.6  
Since 1 July snowfall 42.3 47.9  
Snow Depth 14.00 in    
Sea Level Pressure  
Sea Level Pressure 29.73 in    
Wind  
Wind Speed 13 mph (SSW)    
Max Wind Speed 21 mph    
Max Gust Speed 29 mph    
Visibility 7 miles    
Events Fog , Snow    
T = Trace of Precipitation, MM = Missing Value Source: NWS Daily Summary

Daily Weather History Graph

Daily Weather History Graph

Search for Another Location

Airport or City:

Trip Planner

Search our weather history database for the weather conditions in past years. The results will help you decide how hot, cold, wet, or windy it might be!

Date:

Astronomy

Jan. 30, 2014 Rise Set
Actual Time 7:56 AM EST 5:39 PM EST
Civil Twilight 7:24 AM EST 6:10 PM EST
Nautical Twilight 6:49 AM EST 6:46 PM EST
Astronomical Twilight 6:15 AM EST 7:20 PM EST
Moon 7:19 AM EST (1/30) 5:52 PM EST (1/30)
Length of Visible Light 10h 45m
Length of Day
9h 42m
Waning Crescent, 0% of the Moon is Illuminated
Jan 30
Waning Crescent
Jan 30
New
Feb 6
First Quarter
Feb 14
Full
Feb 22
Last Quarter

Hourly Weather History & Observations

Time (EST) Temp. Windchill Dew Point Humidity Pressure Visibility Wind Dir Wind Speed Gust Speed Precip Events Conditions
12:54 AM 14.0 °F 2.9 °F 5.0 °F 67% 29.98 in 10.0 mi SW 8.1 mph - N/A   Clear
1:54 AM 15.1 °F 1.8 °F 6.1 °F 68% 29.95 in 10.0 mi SSW 11.5 mph - N/A   Clear
2:54 AM 15.1 °F 0.5 °F 6.1 °F 68% 29.93 in 10.0 mi South 13.8 mph - N/A   Clear
3:54 AM 16.0 °F 2.3 °F 6.1 °F 65% 29.90 in 10.0 mi SSW 12.7 mph 23.0 mph N/A   Overcast
4:54 AM 17.1 °F 3.0 °F 7.0 °F 65% 29.87 in 10.0 mi SSW 13.8 mph 25.3 mph N/A   Mostly Cloudy
5:54 AM 17.1 °F 2.5 °F 6.1 °F 62% 29.85 in 10.0 mi SSW 15.0 mph 26.5 mph N/A   Mostly Cloudy
6:54 AM 18.0 °F 2.6 °F 6.1 °F 60% 29.84 in 10.0 mi SSW 17.3 mph - N/A   Overcast
7:54 AM 19.0 °F 6.8 °F 6.1 °F 57% 29.84 in 10.0 mi SSW 11.5 mph - N/A   Mostly Cloudy
8:54 AM 19.9 °F 6.2 °F 6.1 °F 55% 29.84 in 10.0 mi SSW 15.0 mph 23.0 mph N/A   Overcast
9:54 AM 21.0 °F 9.3 °F 7.0 °F 55% 29.83 in 10.0 mi SSW 11.5 mph 21.9 mph N/A   Overcast
10:54 AM 21.9 °F 9.8 °F 7.0 °F 53% 29.82 in 10.0 mi SSW 12.7 mph - N/A   Overcast
11:54 AM 23.0 °F 9.2 °F 8.1 °F 53% 29.79 in 10.0 mi South 17.3 mph 27.6 mph N/A   Overcast
12:54 PM 24.1 °F 12.5 °F 8.1 °F 51% 29.74 in 10.0 mi South 12.7 mph 23.0 mph N/A   Overcast
1:54 PM 24.1 °F 12.5 °F 9.0 °F 53% 29.69 in 10.0 mi South 12.7 mph - N/A   Overcast
2:54 PM 25.0 °F 13.6 °F 9.0 °F 51% 29.69 in 10.0 mi SSW 12.7 mph - N/A   Overcast
3:54 PM 24.1 °F 9.8 °F 12.9 °F 62% 29.62 in 10.0 mi South 19.6 mph - N/A   Overcast
4:54 PM 24.1 °F 9.8 °F 12.9 °F 62% 29.62 in 10.0 mi South 19.6 mph 26.5 mph N/A   Mostly Cloudy
5:19 PM 23.0 °F 9.2 °F 14.0 °F 68% 29.60 in 2.5 mi SSW 17.3 mph 25.3 mph 0.00 in Snow Light Snow
5:27 PM 23.0 °F 10.6 °F 16.0 °F 74% 29.60 in 0.8 mi SSW 13.8 mph 28.8 mph 0.00 in Snow Light Snow
5:41 PM 21.9 °F 9.2 °F 18.0 °F 85% 29.60 in 0.5 mi South 13.8 mph 21.9 mph 0.00 in Fog , Snow Snow
5:54 PM 21.0 °F 9.3 °F 18.0 °F 88% 29.64 in 1.2 mi South 11.5 mph 20.7 mph 0.01 in Snow Light Snow
5:59 PM 21.0 °F 9.3 °F 18.0 °F 88% 29.60 in 2.0 mi South 11.5 mph - 0.00 in Snow Light Snow
6:14 PM 21.0 °F 9.3 °F 18.0 °F 88% 29.59 in 3.0 mi South 11.5 mph - 0.01 in Snow Light Snow
6:54 PM 21.0 °F 7.6 °F 17.1 °F 85% 29.63 in 5.0 mi South 15.0 mph - 0.01 in Snow Light Snow
7:20 PM 21.0 °F 9.9 °F 17.1 °F 85% 29.59 in 4.0 mi South 10.4 mph - 0.00 in Snow Light Snow
7:54 PM 21.0 °F 10.6 °F 18.0 °F 88% 29.62 in 5.0 mi South 9.2 mph - 0.00 in Snow Light Snow
8:54 PM 24.1 °F 13.1 °F 19.0 °F 81% 29.62 in 7.0 mi SSW 11.5 mph - 0.00 in Snow Light Snow
9:07 PM 24.1 °F 13.1 °F 19.0 °F 81% 29.58 in 4.0 mi SSW 11.5 mph - 0.00 in Snow Light Snow
9:54 PM 24.1 °F 13.7 °F 19.9 °F 84% 29.64 in 5.0 mi SSW 10.4 mph - 0.00 in Snow Light Snow
10:54 PM 25.0 °F 16.3 °F 21.0 °F 85% 29.66 in 5.0 mi SW 8.1 mph - 0.00 in Snow Light Snow
11:54 PM 26.1 °F 15.0 °F 21.9 °F 84% 29.70 in 4.0 mi West 12.7 mph 19.6 mph 0.00 in Snow Light Snow